User: anonymous
Location: Campbell River
(50.0170°N, 125.2500°W)
Time: 00:29:18
(UTC-07:00)
Language:

SL-8 R/B - Orbit

View from above orbital plane
View from above orbital plane
View from above satellite
View from above satellite

Ground track
Ground track

The orbit data is extracted from the following two-line orbital elements,

1 31798U 07030B   14233.84041919  .00186250  15484-4  56048-3 0  2039
2 31798 098.1853 292.2859 0003205 050.3291 002.9893 15.92250869399853
Epoch (UTC): 21 August 2014 20:10:12
Eccentricity: 0.0003205
inclination: 98.1853°
perigee height: 294 km
apogee height: 298 km
right ascension of ascending node: 292.2859°
argument of perigee: 50.3291°
revolutions per day: 15.92250869
mean anomaly at epoch: 2.9893°
orbit number at epoch: 39985

The dashed part of the orbit path shows where the satellite is in the earth's shadow,  

DLR